This demonstration page uses our WeatherBlox Daily Observations layout. Learn more.

Left ArrowRight Arrow

Hourly Observations for April 9, 2021

Temp ( °F °C ) Dew Point ( °F °C ) Humidity (%) Winds ( mph kmh ) Pressure ( in mb ) Visibility ( mi km ) Precip ( " mm )
12:56 am 00:56 Clear 41 5 29 -1.7 62 62 Calm 29.60 1002 10 16 0.00 0.00
1:56 am 01:56 Clear 41 5 29 -1.7 62 62 W 6 9 29.61 1003 10 16 0.00 0.00
2:56 am 02:56 Clear 40 4.4 27 -2.8 60 60 W 6 9 29.61 1003 10 16 0.00 0.00
3:56 am 03:56 Clear 38 3.3 27 -2.8 65 65 Calm 29.61 1003 10 16 0.00 0.00
4:56 am 04:56 Clear 38 3.3 26 -3.3 62 62 W 6 9 29.61 1003 10 16 0.00 0.00
5:56 am 05:56 Clear 39 3.9 27 -2.8 62 62 NW 7 11 29.64 1004 10 16 0.00 0.00
6:56 am 06:56 Clear 39 3.9 28 -2.2 65 65 NW 10 17 29.67 1005 10 16 0.00 0.00
7:56 am 07:56 Sunny 43 6.1 32 0 65 65 NNW 16 26 29.70 1006 10 16 0.00 0.00
8:56 am 08:56 Sunny 48 8.9 34 1.1 58 58 NNW 22 35 29.73 1007 10 16 0.00 0.00
9:56 am 09:56 Sunny 51 10.6 34 1.1 52 52 NNW 25 41 29.75 1008 10 16 0.00 0.00
10:56 am 10:56 Sunny 52 11.1 34 1.1 50 50 NNW 20 31 29.80 1009 10 16 0.00 0.00
11:56 am 11:56 Mostly Sunny 50 10 34 1.1 54 54 NNW 22 35 29.84 1011 10 16 0.00 0.00
12:56 pm 12:56 Cloudy with Light Rain 48 8.9 37 2.8 66 66 NW 17 28 29.90 1013 10 16 0.00 0.00
1:56 pm 13:56 Cloudy with Light Rain 46 7.8 40 4.4 79 79 NW 15 24 29.91 1013 10 16 0.01 0.25
2:56 pm 14:56 Cloudy with Light Rain 45 7.2 38 3.3 77 77 NW 16 26 29.93 1014 10 16 0.01 0.25
3:04 pm 15:04 Cloudy with Light Rain 45 7 37 3 76 76 NW 18 30 29.94 1014 10 16 0.01 0.25
3:24 pm 15:24 Cloudy with Light Rain 45 7 39 4 81 81 NNW 14 22 29.93 1014 10 16 0.01 0.25
3:56 pm 15:56 Cloudy with Light Rain 44 6.7 39 3.9 83 83 NNW 15 24 29.93 1014 10 16 0.02 0.51
4:53 pm 16:53 Cloudy with Light Rain 45 7 39 4 81 81 NNW 14 22 29.93 1014 10 16 0.01 0.25
4:56 pm 16:56 Cloudy with Light Rain 43 6.1 39 3.9 86 86 NNW 18 30 29.93 1013 10 16 0.01 0.25
5:12 pm 17:12 Cloudy with Light Rain 43 6 37 3 81 81 NNW 16 26 29.94 1014 10 16 0.00 0.00
5:24 pm 17:24 Cloudy with Light Rain 43 6 37 3 81 81 NW 16 26 29.95 1014 10 16 0.00 0.00
5:56 pm 17:56 Cloudy with Light Rain 42 5.6 37 2.8 82 82 NNW 16 26 29.93 1013 10 16 0.01 0.25
6:31 pm 18:31 Cloudy with Light Rain 41 5 37 3 87 87 NW 17 28 29.97 1015 10 16 0.00 0.00
6:56 pm 18:56 Cloudy with Light Rain 41 5 37 2.8 86 86 NNW 15 24 29.94 1014 10 16 0.00 0.00
7:30 pm 19:30 Cloudy with Light Rain 39 4 36 2 87 87 NW 15 24 29.98 1015 10 16 0.01 0.25
7:56 pm 19:56 Cloudy with Light Rain 39 3.9 36 2.2 89 89 NW 15 24 29.95 1014 10 16 0.01 0.25
8:56 pm 20:56 Cloudy with Light Rain 37 2.8 35 1.7 93 93 NW 15 24 29.95 1014 10 16 0.05 1.27
9:04 pm 21:04 Cloudy with Light Rain 36 2 34 1 93 93 NW 17 28 30.00 1016 10 16 0.01 0.25
9:19 pm 21:19 Cloudy with Light Rain 36 2 34 1 93 93 NW 13 20 30.00 1016 10 16 0.03 0.76
9:34 pm 21:34 Cloudy with Light Rain 36 2 34 1 93 93 NW 13 20 30.00 1016 10 16 0.05 1.27
9:56 pm 21:56 Cloudy with Light Rain 35 1.7 34 1.1 96 96 NW 16 26 29.96 1014 10 16 0.09 2.29
10:56 pm 22:56 Cloudy with Light Rain 38 3.3 37 2.8 97 97 NNW 17 28 29.94 1014 10 16 0.08 2.03
11:31 pm 23:31 Cloudy with Light Rain 39 4 37 3 93 93 NNW 16 26 29.98 1015 10 16 0.00 0.00
11:56 pm 23:56 Cloudy with Light Rain 40 4.4 38 3.3 93 93 NNW 17 28 29.93 1014 10 16 0.05 1.27

Powered by AerisWeather